New Braunfels, TX

1:41 PM CST on February 06, 2016 (GMT -0600)
New Braunfels Municipal

Weather History for KBAZ - November, 2013

Change the Weather History Date:

Saturday, November 16, 2013

  Actual Average (KSAT) Record (KSAT)
Temperature  
Mean Temperature 69 °F 61 °F  
Max Temperature 81 °F 72 °F 86 °F (1938)
Min Temperature 57 °F 50 °F 26 °F (1970)
Degree Days  
Heating Degree Days 0 6  
Month to date heating degree days 67  
Since 1 July heating degree days 100  
Cooling Degree Days 4 2  
Month to date cooling degree days 46  
Year to date cooling degree days 3101  
Growing Degree Days 19 (Base 50)    
Moisture  
Dew Point 66 °F    
Average Humidity 91    
Maximum Humidity 100    
Minimum Humidity 61    
Precipitation  
Precipitation 0.00 in 0.08 in 2.50 in (1907)
Month to date precipitation 1.38  
Year to date precipitation 29.46  
Snow  
Snow 0.00 in - - ()
Month to date snowfall  
Since 1 July snowfall  
Since 1 September snowfall  
Snow Depth -    
Sea Level Pressure  
Sea Level Pressure 29.84 in    
Wind  
Wind Speed 8 mph (SSW)    
Max Wind Speed 21 mph    
Max Gust Speed 26 mph    
Visibility 6 miles    
Events Fog    
T = Trace of Precipitation, MM = Missing Value Source: NWS Daily Summary

Daily Weather History Graph

Daily Weather History Graph

Search for Another Location

Airport or City:

Trip Planner

Search our weather history database for the weather conditions in past years. The results will help you decide how hot, cold, wet, or windy it might be!

Date:

Astronomy

Nov. 16, 2013 Rise Set
Actual Time 6:57 AM CST 5:35 PM CST
Civil Twilight 6:32 AM CST 6:01 PM CST
Nautical Twilight 6:03 AM CST 6:30 PM CST
Astronomical Twilight 5:35 AM CST 6:58 PM CST
Moon 5:09 PM CST (11/16) 5:59 AM CST (11/16)
Length of Visible Light 11h 28m
Length of Day
10h 38m
Waxing Gibbous, 99% of the Moon is Illuminated
Nov 16
Waxing Gibbous
Nov 17
Full
Nov 25
Last Quarter
Dec 2
New
Dec 9
First Quarter

Hourly Weather History & Observations

Time (CST) Temp. Heat Index Dew Point Humidity Pressure Visibility Wind Dir Wind Speed Gust Speed Precip Events Conditions
12:42 AM 57.2 °F - 57.2 °F 100% 29.91 in 8.0 mi South 4.6 mph - N/A   Scattered Clouds
12:51 AM 57.9 °F - 57.9 °F 100% 29.90 in 8.0 mi South 5.8 mph - N/A   Mostly Cloudy
1:10 AM 60.8 °F - 60.8 °F 100% 29.91 in 9.0 mi SSW 4.6 mph - N/A   Overcast
1:51 AM 62.1 °F - 62.1 °F 100% 29.89 in 7.0 mi SW 5.8 mph - N/A   Overcast
2:05 AM 62.6 °F - 62.6 °F 100% 29.89 in 5.0 mi SSW 6.9 mph - N/A   Overcast
2:24 AM 62.6 °F - 62.6 °F 100% 29.89 in 2.0 mi SSW 6.9 mph - N/A   Overcast
2:27 AM 62.6 °F - 62.6 °F 100% 29.89 in 1.5 mi SSW 6.9 mph - N/A   Overcast
2:33 AM 62.6 °F - 62.6 °F 100% 29.89 in 1.0 mi SW 6.9 mph - N/A   Overcast
2:43 AM 62.6 °F - 62.6 °F 100% 29.89 in 0.8 mi SW 8.1 mph - N/A   Overcast
2:51 AM 63.0 °F - 63.0 °F 100% 29.87 in 0.8 mi SW 6.9 mph - N/A   Mist
3:51 AM 63.0 °F - 63.0 °F 100% 29.86 in 0.5 mi SSW 5.8 mph - N/A Fog Fog
4:51 AM 63.0 °F - 63.0 °F 100% 29.87 in 1.0 mi SSW 6.9 mph - N/A   Mist
4:54 AM 62.6 °F - 62.6 °F 100% 29.88 in 1.5 mi SSW 6.9 mph - N/A   Overcast
4:58 AM 62.6 °F - 62.6 °F 100% 29.88 in 2.0 mi SSW 6.9 mph - N/A   Overcast
5:11 AM 64.4 °F - 64.4 °F 100% 29.88 in 1.8 mi SSW 6.9 mph - N/A   Overcast
5:18 AM 62.6 °F - 62.6 °F 100% 29.88 in 1.5 mi SSW 8.1 mph - N/A   Overcast
5:25 AM 62.6 °F - 62.6 °F 100% 29.88 in 1.0 mi SSW 5.8 mph - N/A   Overcast
5:44 AM 62.6 °F - 62.6 °F 100% 29.88 in 1.5 mi SSW 4.6 mph - N/A   Overcast
5:49 AM 62.6 °F - 62.6 °F 100% 29.88 in 2.0 mi SSW 5.8 mph - N/A   Overcast
5:51 AM 63.0 °F - 63.0 °F 100% 29.86 in 2.0 mi SSW 5.8 mph - N/A   Overcast
5:57 AM 62.6 °F - 62.6 °F 100% 29.88 in 1.5 mi SSW 6.9 mph - N/A   Overcast
6:05 AM 62.6 °F - 62.6 °F 100% 29.88 in 1.0 mi SSW 4.6 mph - N/A   Overcast
6:27 AM 62.6 °F - 62.6 °F 100% 29.88 in 1.2 mi SSW 5.8 mph - N/A   Overcast
6:39 AM 62.6 °F - 62.6 °F 100% 29.88 in 0.8 mi South 4.6 mph - N/A   Overcast
6:51 AM 63.0 °F - 63.0 °F 100% 29.87 in 0.5 mi SSW 3.5 mph - N/A Fog Fog
7:02 AM 62.6 °F - 62.6 °F 100% 29.88 in 0.2 mi SSW 3.5 mph - N/A Fog Fog
7:46 AM 64.4 °F - 64.4 °F 100% 29.89 in 0.5 mi SSW 8.1 mph - N/A Fog Fog
7:51 AM 64.0 °F - 64.0 °F 100% 29.88 in 0.5 mi SSW 8.1 mph - N/A Fog Fog
8:23 AM 64.4 °F - 64.4 °F 100% 29.90 in 1.5 mi SSW 6.9 mph - N/A   Overcast
8:46 AM 66.2 °F - 66.2 °F 100% 29.91 in 1.5 mi SSW 6.9 mph - N/A   Overcast
8:51 AM 66.0 °F - 66.0 °F 100% 29.89 in 7.0 mi SSW 5.8 mph - N/A   Overcast
9:33 AM 69.8 °F - 66.2 °F 88% 29.91 in 10.0 mi SSW 10.4 mph - N/A   Overcast
9:51 AM 72.0 °F - 66.9 °F 84% 29.89 in 10.0 mi SSW 15.0 mph - N/A   Mostly Cloudy
10:07 AM 73.4 °F - 66.2 °F 78% 29.91 in 10.0 mi SSW 13.8 mph - N/A   Mostly Cloudy
10:51 AM 78.1 °F - 66.0 °F 66% 29.87 in 10.0 mi SSW 15.0 mph - N/A   Partly Cloudy
11:51 AM 80.1 °F 82.1 °F 66.0 °F 62% 29.83 in 10.0 mi SSW 20.7 mph 26.5 mph N/A   Mostly Cloudy
12:51 PM 80.1 °F 82.3 °F 66.9 °F 64% 29.80 in 10.0 mi SSW 18.4 mph - N/A   Overcast
1:02 PM 78.8 °F - 66.2 °F 65% 29.81 in 10.0 mi SSW 16.1 mph 23.0 mph N/A   Overcast
1:11 PM 78.8 °F - 66.2 °F 65% 29.80 in 10.0 mi South 13.8 mph - N/A   Overcast
1:51 PM 81.0 °F 83.3 °F 66.9 °F 62% 29.76 in 10.0 mi South 19.6 mph - N/A   Overcast
1:58 PM 80.6 °F 82.7 °F 66.2 °F 61% 29.77 in 10.0 mi South 18.4 mph - N/A   Overcast
2:51 PM 80.1 °F 82.7 °F 68.0 °F 67% 29.74 in 10.0 mi SSW 15.0 mph - N/A   Overcast
3:51 PM 80.1 °F 82.7 °F 68.0 °F 67% 29.74 in 10.0 mi South 17.3 mph 23.0 mph N/A   Overcast
4:51 PM 79.0 °F - 69.1 °F 72% 29.74 in 10.0 mi SSW 12.7 mph - N/A   Mostly Cloudy
5:51 PM 77.0 °F - 69.1 °F 76% 29.74 in 10.0 mi South 11.5 mph - N/A   Scattered Clouds
6:51 PM 75.0 °F - 70.0 °F 84% 29.76 in 10.0 mi South 9.2 mph - N/A   Mostly Cloudy
7:29 PM 75.2 °F - 71.6 °F 89% 29.78 in 10.0 mi South 11.5 mph - N/A   Mostly Cloudy
7:36 PM 75.2 °F - 71.6 °F 89% 29.78 in 10.0 mi South 11.5 mph - N/A   Mostly Cloudy
7:51 PM 73.9 °F - 71.1 °F 91% 29.77 in 10.0 mi South 11.5 mph - N/A   Scattered Clouds
8:06 PM 73.4 °F - 71.6 °F 94% 29.78 in 10.0 mi South 10.4 mph - N/A   Mostly Cloudy
8:36 PM 75.2 °F - 71.6 °F 89% 29.80 in 10.0 mi South 10.4 mph - N/A   Overcast
8:51 PM 75.0 °F - 71.1 °F 87% 29.79 in 10.0 mi South 9.2 mph - N/A   Overcast
9:51 PM 73.9 °F - 71.1 °F 91% 29.79 in 10.0 mi South 8.1 mph - N/A   Overcast
10:51 PM 73.9 °F - 72.0 °F 93% 29.78 in 10.0 mi South 11.5 mph - N/A   Overcast
11:26 PM 73.4 °F - 71.6 °F 94% 29.80 in 10.0 mi South 8.1 mph - N/A   Overcast
11:34 PM 73.4 °F - 71.6 °F 94% 29.80 in 10.0 mi South 8.1 mph - N/A   Overcast
11:51 PM 73.9 °F - 72.0 °F 93% 29.78 in 10.0 mi South 8.1 mph - N/A   Overcast